Time,TemperatureF,DewpointF,PressureIn,WindDirection,WindDirectionDegrees,WindSpeedMPH,WindSpeedGustMPH,Humidity,HourlyPrecipIn,Conditions,Clouds,dailyrainin,SoftwareType,DateUTC
2013-03-17 00:00:00,59.9,46.6,30.00,NW,309,6.0,8.0,61,0.00,,,0.00,WUHU216DAVISVP2,2013-03-17 07:00:00,
2013-03-17 00:05:00,59.6,46.3,30.00,NW,314,3.0,8.0,61,0.00,,,0.00,WUHU216DAVISVP2,2013-03-17 07:05:00,
2013-03-17 00:10:00,59.5,46.2,30.00,NW,310,8.0,8.0,61,0.00,,,0.00,WUHU216DAVISVP2,2013-03-17 07:10:00,
2013-03-17 00:15:00,59.5,46.2,30.00,NW,322,3.0,8.0,61,0.00,,,0.00,WUHU216DAVISVP2,2013-03-17 07:15:00,
2013-03-17 00:20:00,59.5,46.2,30.00,NW,319,4.0,9.0,61,0.00,,,0.00,WUHU216DAVISVP2,2013-03-17 07:20:00,
2013-03-17 00:25:00,59.4,46.1,30.00,NW,317,7.0,9.0,61,0.00,,,0.00,WUHU216DAVISVP2,2013-03-17 07:25:00,
2013-03-17 00:30:00,59.4,45.6,30.00,NNW,343,2.0,9.0,60,0.00,,,0.00,WUHU216DAVISVP2,2013-03-17 07:30:00,
2013-03-17 00:35:00,59.3,45.5,30.00,NNW,333,3.0,9.0,60,0.00,,,0.00,WUHU216DAVISVP2,2013-03-17 07:35:00,
2013-03-17 00:40:00,59.3,45.1,30.00,NNW,336,4.0,6.0,59,0.00,,,0.00,WUHU216DAVISVP2,2013-03-17 07:40:00,
2013-03-17 00:45:00,59.3,44.6,30.00,NW,317,4.0,6.0,58,0.00,,,0.00,WUHU216DAVISVP2,2013-03-17 07:45:00,
2013-03-17 00:50:00,59.5,44.4,30.00,NW,309,0.0,6.0,57,0.00,,,0.00,WUHU216DAVISVP2,2013-03-17 07:50:00,
2013-03-17 00:55:00,59.5,44.4,30.00,NW,323,4.0,6.0,57,0.00,,,0.00,WUHU216DAVISVP2,2013-03-17 07:55:00,
2013-03-17 01:00:00,59.5,43.9,30.00,WNW,298,3.0,7.0,56,0.00,,,0.00,WUHU216DAVISVP2,2013-03-17 08:00:00,
2013-03-17 01:05:00,59.4,43.8,30.00,NW,308,1.0,7.0,56,0.00,,,0.00,WUHU216DAVISVP2,2013-03-17 08:05:00,
2013-03-17 01:10:00,59.3,43.7,30.00,NNW,328,2.0,6.0,56,0.00,,,0.00,WUHU216DAVISVP2,2013-03-17 08:10:00,
2013-03-17 01:15:00,59.1,44.0,30.00,NW,305,0.0,5.0,57,0.00,,,0.00,WUHU216DAVISVP2,2013-03-17 08:15:00,
2013-03-17 01:20:00,58.8,43.7,30.00,NW,308,3.0,5.0,57,0.00,,,0.00,WUHU216DAVISVP2,2013-03-17 08:20:00,
2013-03-17 01:25:00,58.9,43.8,30.01,NW,321,0.0,7.0,57,0.00,,,0.00,WUHU216DAVISVP2,2013-03-17 08:25:00,
2013-03-17 01:30:00,58.6,44.0,30.01,NNW,341,4.0,7.0,58,0.00,,,0.00,WUHU216DAVISVP2,2013-03-17 08:30:00,
2013-03-17 01:35:00,58.6,44.0,30.01,NW,320,0.0,7.0,58,0.00,,,0.00,WUHU216DAVISVP2,2013-03-17 08:35:00,
2013-03-17 01:40:00,58.4,44.2,30.01,NNW,329,4.0,7.0,59,0.00,,,0.00,WUHU216DAVISVP2,2013-03-17 08:40:00,
2013-03-17 01:45:00,58.4,44.2,30.01,NNW,331,3.0,8.0,59,0.00,,,0.00,WUHU216DAVISVP2,2013-03-17 08:45:00,
2013-03-17 01:50:00,58.2,44.1,30.01,NW,325,5.0,8.0,59,0.00,,,0.00,WUHU216DAVISVP2,2013-03-17 08:50:00,
2013-03-17 01:55:00,58.1,44.4,30.01,NW,315,3.0,6.0,60,0.00,,,0.00,WUHU216DAVISVP2,2013-03-17 08:55:00,
2013-03-17 02:00:00,58.0,44.3,30.01,WNW,300,3.0,5.0,60,0.00,,,0.00,WUHU216DAVISVP2,2013-03-17 09:00:00,
2013-03-17 02:05:00,57.9,44.2,30.01,WNW,298,3.0,5.0,60,0.00,,,0.00,WUHU216DAVISVP2,2013-03-17 09:05:00,
2013-03-17 02:10:00,57.7,44.0,30.01,WNW,298,1.0,5.0,60,0.00,,,0.00,WUHU216DAVISVP2,2013-03-17 09:10:00,
2013-03-17 02:15:00,57.6,43.9,30.01,NW,304,4.0,7.0,60,0.00,,,0.00,WUHU216DAVISVP2,2013-03-17 09:15:00,
2013-03-17 02:20:00,57.5,43.8,30.01,NW,307,3.0,7.0,60,0.00,,,0.00,WUHU216DAVISVP2,2013-03-17 09:20:00,
2013-03-17 02:25:00,57.2,43.6,30.01,NW,307,3.0,6.0,60,0.00,,,0.00,WUHU216DAVISVP2,2013-03-17 09:25:00,
2013-03-17 02:30:00,56.9,43.7,30.01,WNW,300,3.0,7.0,61,0.00,,,0.00,WUHU216DAVISVP2,2013-03-17 09:30:00,
2013-03-17 02:35:00,56.8,43.6,30.01,NW,306,4.0,7.0,61,0.00,,,0.00,WUHU216DAVISVP2,2013-03-17 09:35:00,
2013-03-17 02:40:00,56.6,43.4,30.01,NW,304,4.0,5.0,61,0.00,,,0.00,WUHU216DAVISVP2,2013-03-17 09:40:00,
2013-03-17 02:45:00,56.4,43.7,30.01,NW,304,0.0,5.0,62,0.00,,,0.00,WUHU216DAVISVP2,2013-03-17 09:45:00,
2013-03-17 02:50:00,56.2,43.5,30.01,West,279,2.0,5.0,62,0.00,,,0.00,WUHU216DAVISVP2,2013-03-17 09:50:00,
2013-03-17 02:55:00,56.0,43.3,30.01,WNW,300,5.0,5.0,62,0.00,,,0.00,WUHU216DAVISVP2,2013-03-17 09:55:00,
2013-03-17 03:00:00,56.0,43.3,30.01,WNW,300,0.0,6.0,62,0.00,,,0.00,WUHU216DAVISVP2,2013-03-17 10:00:00,
2013-03-17 03:05:00,55.9,43.2,30.01,NW,325,5.0,9.0,62,0.00,,,0.00,WUHU216DAVISVP2,2013-03-17 10:05:00,
2013-03-17 03:10:00,55.6,43.3,30.01,WNW,294,2.0,9.0,63,0.00,,,0.00,WUHU216DAVISVP2,2013-03-17 10:10:00,
2013-03-17 03:15:00,55.5,43.6,30.01,West,277,4.0,8.0,64,0.00,,,0.00,WUHU216DAVISVP2,2013-03-17 10:15:00,
2013-03-17 03:20:00,55.6,43.3,30.01,NNW,338,6.0,8.0,63,0.00,,,0.00,WUHU216DAVISVP2,2013-03-17 10:20:00,
2013-03-17 03:25:00,55.5,43.6,30.01,NNW,339,5.0,9.0,64,0.00,,,0.00,WUHU216DAVISVP2,2013-03-17 10:25:00,
2013-03-17 03:30:00,55.5,43.6,30.01,North,360,4.0,9.0,64,0.00,,,0.00,WUHU216DAVISVP2,2013-03-17 10:30:00,
2013-03-17 03:35:00,55.6,43.3,30.00,NW,317,9.0,10.0,63,0.00,,,0.00,WUHU216DAVISVP2,2013-03-17 10:35:00,
2013-03-17 03:40:00,55.8,43.5,30.00,NW,313,4.0,13.0,63,0.00,,,0.00,WUHU216DAVISVP2,2013-03-17 10:40:00,
2013-03-17 03:45:00,56.0,43.3,30.00,NNW,331,5.0,13.0,62,0.00,,,0.00,WUHU216DAVISVP2,2013-03-17 10:45:00,
2013-03-17 03:50:00,56.0,43.3,30.00,North,351,8.0,11.0,62,0.00,,,0.00,WUHU216DAVISVP2,2013-03-17 10:50:00,
2013-03-17 03:55:00,56.2,43.5,30.01,WNW,303,8.0,12.0,62,0.00,,,0.00,WUHU216DAVISVP2,2013-03-17 10:55:00,
2013-03-17 04:00:00,56.2,43.5,30.01,WNW,302,6.0,13.0,62,0.00,,,0.00,WUHU216DAVISVP2,2013-03-17 11:00:00,
2013-03-17 04:05:00,56.2,44.3,30.00,NW,325,9.0,13.0,64,0.00,,,0.00,WUHU216DAVISVP2,2013-03-17 11:05:00,
2013-03-17 04:10:00,56.0,43.3,30.00,NW,308,5.0,12.0,62,0.00,,,0.00,WUHU216DAVISVP2,2013-03-17 11:10:00,
2013-03-17 04:15:00,55.8,43.5,30.00,NW,312,3.0,12.0,63,0.00,,,0.00,WUHU216DAVISVP2,2013-03-17 11:15:00,
2013-03-17 04:20:00,55.5,43.2,30.00,NNW,331,5.0,10.0,63,0.00,,,0.00,WUHU216DAVISVP2,2013-03-17 11:20:00,
2013-03-17 04:25:00,55.3,43.5,30.00,NNW,336,8.0,10.0,64,0.00,,,0.00,WUHU216DAVISVP2,2013-03-17 11:25:00,
2013-03-17 04:30:00,55.1,43.3,30.00,NW,304,6.0,9.0,64,0.00,,,0.00,WUHU216DAVISVP2,2013-03-17 11:30:00,
2013-03-17 04:35:00,54.9,43.5,30.00,NW,318,7.0,10.0,65,0.00,,,0.00,WUHU216DAVISVP2,2013-03-17 11:35:00,
2013-03-17 04:40:00,54.8,43.4,30.01,NW,304,6.0,10.0,65,0.00,,,0.00,WUHU216DAVISVP2,2013-03-17 11:40:00,
2013-03-17 04:45:00,54.5,43.5,30.01,NNW,336,5.0,10.0,66,0.00,,,0.00,WUHU216DAVISVP2,2013-03-17 11:45:00,
2013-03-17 04:50:00,54.2,43.2,30.01,NW,319,2.0,9.0,66,0.00,,,0.00,WUHU216DAVISVP2,2013-03-17 11:50:00,
2013-03-17 04:55:00,54.0,43.4,30.01,NW,322,6.0,9.0,67,0.00,,,0.00,WUHU216DAVISVP2,2013-03-17 11:55:00,
2013-03-17 05:00:00,53.9,43.3,30.01,NW,323,9.0,11.0,67,0.00,,,0.00,WUHU216DAVISVP2,2013-03-17 12:00:00,
2013-03-17 05:05:00,54.0,43.4,30.01,North,355,2.0,11.0,67,0.00,,,0.00,WUHU216DAVISVP2,2013-03-17 12:05:00,
2013-03-17 05:10:00,53.7,43.5,30.01,NNW,334,7.0,11.0,68,0.00,,,0.00,WUHU216DAVISVP2,2013-03-17 12:10:00,
2013-03-17 05:15:00,53.5,43.3,30.01,NNW,329,7.0,11.0,68,0.00,,,0.00,WUHU216DAVISVP2,2013-03-17 12:15:00,
2013-03-17 05:20:00,53.3,43.5,30.01,NNW,348,5.0,11.0,69,0.00,,,0.00,WUHU216DAVISVP2,2013-03-17 12:20:00,
2013-03-17 05:25:00,53.1,43.3,30.01,NW,309,4.0,10.0,69,0.00,,,0.00,WUHU216DAVISVP2,2013-03-17 12:25:00,
2013-03-17 05:30:00,53.0,43.2,30.01,NNW,331,5.0,10.0,69,0.00,,,0.00,WUHU216DAVISVP2,2013-03-17 12:30:00,
2013-03-17 05:35:00,53.1,43.3,30.01,NW,309,4.0,10.0,69,0.00,,,0.00,WUHU216DAVISVP2,2013-03-17 12:35:00,
2013-03-17 05:40:00,53.0,43.2,30.01,NNE,17,8.0,9.0,69,0.00,,,0.00,WUHU216DAVISVP2,2013-03-17 12:40:00,
2013-03-17 05:45:00,53.0,43.6,30.01,NW,306,4.0,10.0,70,0.00,,,0.00,WUHU216DAVISVP2,2013-03-17 12:45:00,
2013-03-17 05:50:00,52.9,43.5,30.01,NNW,333,8.0,11.0,70,0.00,,,0.00,WUHU216DAVISVP2,2013-03-17 12:50:00,
2013-03-17 05:55:00,53.1,43.7,30.01,NW,321,7.0,11.0,70,0.00,,,0.00,WUHU216DAVISVP2,2013-03-17 12:55:00,
2013-03-17 06:00:00,53.1,43.7,30.01,NW,316,5.0,11.0,70,0.00,,,0.00,WUHU216DAVISVP2,2013-03-17 13:00:00,
2013-03-17 06:05:00,53.2,43.8,30.01,NNW,346,3.0,11.0,70,0.00,,,0.00,WUHU216DAVISVP2,2013-03-17 13:05:00,
2013-03-17 06:10:00,53.2,43.8,30.01,WNW,286,3.0,11.0,70,0.00,,,0.00,WUHU216DAVISVP2,2013-03-17 13:10:00,
2013-03-17 06:15:00,53.1,43.7,30.01,WNW,298,6.0,11.0,70,0.00,,,0.00,WUHU216DAVISVP2,2013-03-17 13:15:00,
2013-03-17 06:20:00,53.1,43.7,30.02,NNW,345,4.0,9.0,70,0.00,,,0.00,WUHU216DAVISVP2,2013-03-17 13:20:00,
2013-03-17 06:25:00,53.0,43.6,30.02,NNW,334,3.0,9.0,70,0.00,,,0.00,WUHU216DAVISVP2,2013-03-17 13:25:00,
2013-03-17 06:30:00,52.8,43.8,30.02,NW,309,2.0,9.0,71,0.00,,,0.00,WUHU216DAVISVP2,2013-03-17 13:30:00,
2013-03-17 06:35:00,52.5,43.5,30.02,NW,316,2.0,9.0,71,0.00,,,0.00,WUHU216DAVISVP2,2013-03-17 13:35:00,
2013-03-17 06:40:00,52.2,43.5,30.02,NW,321,2.0,6.0,72,0.00,,,0.00,WUHU216DAVISVP2,2013-03-17 13:40:00,
2013-03-17 06:45:00,51.9,43.3,30.02,NW,319,3.0,6.0,72,0.00,,,0.00,WUHU216DAVISVP2,2013-03-17 13:45:00,
2013-03-17 06:50:00,51.8,43.2,30.03,NW,313,2.0,7.0,72,0.00,,,0.00,WUHU216DAVISVP2,2013-03-17 13:50:00,
2013-03-17 06:55:00,51.8,43.2,30.03,NW,323,0.0,8.0,72,0.00,,,0.00,WUHU216DAVISVP2,2013-03-17 13:55:00,
2013-03-17 07:00:00,51.7,43.1,30.03,NNW,331,6.0,9.0,72,0.00,,,0.00,WUHU216DAVISVP2,2013-03-17 14:00:00,
2013-03-17 07:05:00,51.7,43.1,30.03,NNW,328,2.0,9.0,72,0.00,,,0.00,WUHU216DAVISVP2,2013-03-17 14:05:00,
2013-03-17 07:10:00,51.7,43.1,30.04,NNW,338,2.0,9.0,72,0.00,,,0.00,WUHU216DAVISVP2,2013-03-17 14:10:00,
2013-03-17 07:15:00,51.5,43.1,30.04,NW,319,5.0,7.0,73,0.00,,,0.00,WUHU216DAVISVP2,2013-03-17 14:15:00,
2013-03-17 07:20:00,51.4,43.0,30.04,NNE,20,6.0,7.0,73,0.00,,,0.00,WUHU216DAVISVP2,2013-03-17 14:20:00,
2013-03-17 07:25:00,51.2,43.3,30.03,NW,319,4.0,7.0,74,0.00,,,0.00,WUHU216DAVISVP2,2013-03-17 14:25:00,
2013-03-17 07:30:00,50.9,43.0,30.03,NNW,348,4.0,7.0,74,0.00,,,0.00,WUHU216DAVISVP2,2013-03-17 14:30:00,
2013-03-17 07:35:00,50.6,43.0,30.03,North,5,4.0,7.0,75,0.00,,,0.00,WUHU216DAVISVP2,2013-03-17 14:35:00,
2013-03-17 07:40:00,50.3,43.0,30.03,NW,323,3.0,5.0,76,0.00,,,0.00,WUHU216DAVISVP2,2013-03-17 14:40:00,
2013-03-17 07:45:00,50.3,43.1,30.03,NNW,338,2.0,4.0,76,0.00,,,0.00,WUHU216DAVISVP2,2013-03-17 14:45:00,
2013-03-17 07:50:00,50.4,43.5,30.03,NNW,342,1.0,6.0,77,0.00,,,0.00,WUHU216DAVISVP2,2013-03-17 14:50:00,
2013-03-17 07:55:00,50.8,43.9,30.03,NW,309,7.0,9.0,77,0.00,,,0.00,WUHU216DAVISVP2,2013-03-17 14:55:00,
2013-03-17 08:00:00,51.4,44.2,30.04,NNW,333,5.0,11.0,76,0.00,,,0.00,WUHU216DAVISVP2,2013-03-17 15:00:00,
2013-03-17 08:05:00,51.8,44.1,30.04,NW,318,8.0,11.0,75,0.00,,,0.00,WUHU216DAVISVP2,2013-03-17 15:05:00,
2013-03-17 08:10:00,52.2,44.2,30.05,NNW,330,6.0,10.0,74,0.00,,,0.00,WUHU216DAVISVP2,2013-03-17 15:10:00,
2013-03-17 08:15:00,52.4,44.4,30.05,NW,306,7.0,10.0,74,0.00,,,0.00,WUHU216DAVISVP2,2013-03-17 15:15:00,
2013-03-17 08:20:00,52.7,44.4,30.05,NW,311,9.0,9.0,73,0.00,,,0.00,WUHU216DAVISVP2,2013-03-17 15:20:00,
2013-03-17 08:25:00,52.9,44.6,30.05,NNW,331,5.0,13.0,73,0.00,,,0.00,WUHU216DAVISVP2,2013-03-17 15:25:00,
2013-03-17 08:30:00,53.2,44.9,30.05,West,279,4.0,13.0,73,0.00,,,0.00,WUHU216DAVISVP2,2013-03-17 15:30:00,
2013-03-17 08:35:00,53.5,44.8,30.05,North,360,5.0,11.0,72,0.00,,,0.00,WUHU216DAVISVP2,2013-03-17 15:35:00,
2013-03-17 08:40:00,53.8,45.1,30.06,NW,313,4.0,11.0,72,0.00,,,0.00,WUHU216DAVISVP2,2013-03-17 15:40:00,
2013-03-17 08:45:00,54.3,44.7,30.06,NNW,327,7.0,11.0,70,0.00,,,0.00,WUHU216DAVISVP2,2013-03-17 15:45:00,
2013-03-17 08:50:00,54.9,45.3,30.06,NW,313,5.0,11.0,70,0.00,,,0.00,WUHU216DAVISVP2,2013-03-17 15:50:00,
2013-03-17 08:55:00,55.2,45.2,30.06,NNW,338,7.0,11.0,69,0.00,,,0.00,WUHU216DAVISVP2,2013-03-17 15:55:00,
2013-03-17 09:00:00,55.7,45.4,30.07,NW,322,8.0,13.0,68,0.00,,,0.00,WUHU216DAVISVP2,2013-03-17 16:00:00,
2013-03-17 09:05:00,55.9,45.2,30.07,NW,318,5.0,13.0,67,0.00,,,0.00,WUHU216DAVISVP2,2013-03-17 16:05:00,
2013-03-17 09:10:00,56.4,45.3,30.07,NNW,339,5.0,12.0,66,0.00,,,0.00,WUHU216DAVISVP2,2013-03-17 16:10:00,
2013-03-17 09:15:00,56.9,45.4,30.07,NW,319,6.0,16.0,65,0.00,,,0.00,WUHU216DAVISVP2,2013-03-17 16:15:00,
2013-03-17 09:20:00,56.9,45.0,30.07,NNW,338,5.0,16.0,64,0.00,,,0.00,WUHU216DAVISVP2,2013-03-17 16:20:00,
2013-03-17 09:25:00,57.6,45.6,30.06,NW,325,5.0,14.0,64,0.00,,,0.00,WUHU216DAVISVP2,2013-03-17 16:25:00,
2013-03-17 09:30:00,57.7,45.3,30.07,NNW,342,4.0,14.0,63,0.00,,,0.00,WUHU216DAVISVP2,2013-03-17 16:30:00,
2013-03-17 09:35:00,58.2,45.4,30.07,NNW,342,6.0,14.0,62,0.00,,,0.00,WUHU216DAVISVP2,2013-03-17 16:35:00,
2013-03-17 09:40:00,58.7,45.4,30.07,NNW,341,17.0,17.0,61,0.00,,,0.00,WUHU216DAVISVP2,2013-03-17 16:40:00,
2013-03-17 09:45:00,59.1,45.4,30.07,NNW,327,16.0,19.0,60,0.00,,,0.00,WUHU216DAVISVP2,2013-03-17 16:45:00,
2013-03-17 09:50:00,59.5,44.8,30.08,NNW,327,8.0,19.0,58,0.00,,,0.00,WUHU216DAVISVP2,2013-03-17 16:50:00,
2013-03-17 09:55:00,59.8,45.6,30.08,NW,308,9.0,20.0,59,0.00,,,0.00,WUHU216DAVISVP2,2013-03-17 16:55:00,
2013-03-17 10:00:00,60.1,45.8,30.08,North,355,10.0,20.0,59,0.00,,,0.00,WUHU216DAVISVP2,2013-03-17 17:00:00,
2013-03-17 10:05:00,60.4,45.7,30.08,North,355,10.0,15.0,58,0.00,,,0.00,WUHU216DAVISVP2,2013-03-17 17:05:00,
2013-03-17 10:10:00,60.5,45.3,30.08,NW,311,8.0,16.0,57,0.00,,,0.00,WUHU216DAVISVP2,2013-03-17 17:10:00,
2013-03-17 10:15:00,60.9,45.7,30.08,North,350,8.0,16.0,57,0.00,,,0.00,WUHU216DAVISVP2,2013-03-17 17:15:00,
2013-03-17 10:20:00,61.8,46.5,30.08,NNW,332,3.0,13.0,57,0.00,,,0.00,WUHU216DAVISVP2,2013-03-17 17:20:00,
2013-03-17 10:25:00,61.6,45.4,30.08,NW,316,11.0,15.0,55,0.00,,,0.00,WUHU216DAVISVP2,2013-03-17 17:25:00,
2013-03-17 10:30:00,61.4,45.2,30.08,NNW,344,13.0,15.0,55,0.00,,,0.00,WUHU216DAVISVP2,2013-03-17 17:30:00,
2013-03-17 10:35:00,62.0,45.7,30.08,North,355,5.0,15.0,55,0.00,,,0.00,WUHU216DAVISVP2,2013-03-17 17:35:00,
2013-03-17 10:40:00,62.3,45.5,30.08,North,10,11.0,15.0,54,0.00,,,0.00,WUHU216DAVISVP2,2013-03-17 17:40:00,
2013-03-17 10:45:00,62.3,45.5,30.09,NNW,341,5.0,15.0,54,0.00,,,0.00,WUHU216DAVISVP2,2013-03-17 17:45:00,
2013-03-17 10:50:00,62.8,45.5,30.08,NNW,333,10.0,14.0,53,0.00,,,0.00,WUHU216DAVISVP2,2013-03-17 17:50:00,
2013-03-17 10:55:00,62.8,45.0,30.08,NNW,329,2.0,14.0,52,0.00,,,0.00,WUHU216DAVISVP2,2013-03-17 17:55:00,
2013-03-17 11:00:00,63.2,45.9,30.08,North,11,3.0,14.0,53,0.00,,,0.00,WUHU216DAVISVP2,2013-03-17 18:00:00,
2013-03-17 11:05:00,63.4,45.5,30.08,NNW,342,5.0,13.0,52,0.00,,,0.00,WUHU216DAVISVP2,2013-03-17 18:05:00,
2013-03-17 11:10:00,63.6,46.2,30.08,NW,311,4.0,12.0,53,0.00,,,0.00,WUHU216DAVISVP2,2013-03-17 18:10:00,
2013-03-17 11:15:00,63.8,45.4,30.08,NW,323,4.0,12.0,51,0.00,,,0.00,WUHU216DAVISVP2,2013-03-17 18:15:00,
2013-03-17 11:20:00,64.4,45.9,30.08,North,355,7.0,10.0,51,0.00,,,0.00,WUHU216DAVISVP2,2013-03-17 18:20:00,
2013-03-17 11:25:00,64.4,45.4,30.08,North,9,6.0,10.0,50,0.00,,,0.00,WUHU216DAVISVP2,2013-03-17 18:25:00,
2013-03-17 11:30:00,65.3,46.7,30.08,NNW,333,4.0,10.0,51,0.00,,,0.00,WUHU216DAVISVP2,2013-03-17 18:30:00,
2013-03-17 11:35:00,65.5,47.4,30.08,NNW,347,5.0,8.0,52,0.00,,,0.00,WUHU216DAVISVP2,2013-03-17 18:35:00,
2013-03-17 11:40:00,64.9,45.3,30.08,NW,308,2.0,9.0,49,0.00,,,0.00,WUHU216DAVISVP2,2013-03-17 18:40:00,
2013-03-17 11:45:00,65.4,46.8,30.08,North,360,3.0,9.0,51,0.00,,,0.00,WUHU216DAVISVP2,2013-03-17 18:45:00,
2013-03-17 11:50:00,65.8,46.1,30.08,North,355,3.0,6.0,49,0.00,,,0.00,WUHU216DAVISVP2,2013-03-17 18:50:00,
2013-03-17 11:55:00,65.8,46.1,30.08,NNW,348,0.0,7.0,49,0.00,,,0.00,WUHU216DAVISVP2,2013-03-17 18:55:00,
2013-03-17 12:00:00,66.0,46.3,30.08,NNW,348,1.0,7.0,49,0.00,,,0.00,WUHU216DAVISVP2,2013-03-17 19:00:00,
2013-03-17 12:05:00,66.4,47.8,30.07,NNE,26,0.0,6.0,51,0.00,,,0.00,WUHU216DAVISVP2,2013-03-17 19:05:00,
2013-03-17 12:10:00,67.5,45.4,30.07,NE,48,0.0,6.0,45,0.00,,,0.00,WUHU216DAVISVP2,2013-03-17 19:10:00,
2013-03-17 12:15:00,67.6,46.6,30.07,NE,48,0.0,5.0,47,0.00,,,0.00,WUHU216DAVISVP2,2013-03-17 19:15:00,
2013-03-17 12:20:00,67.2,45.7,30.07,NNW,342,1.0,6.0,46,0.00,,,0.00,WUHU216DAVISVP2,2013-03-17 19:20:00,
2013-03-17 12:25:00,67.8,45.6,30.07,North,355,2.0,6.0,45,0.00,,,0.00,WUHU216DAVISVP2,2013-03-17 19:25:00,
2013-03-17 12:30:00,67.8,46.2,30.06,North,5,1.0,6.0,46,0.00,,,0.00,WUHU216DAVISVP2,2013-03-17 19:30:00,
2013-03-17 12:35:00,67.2,45.1,30.06,NW,310,5.0,6.0,45,0.00,,,0.00,WUHU216DAVISVP2,2013-03-17 19:35:00,
2013-03-17 12:40:00,67.7,46.2,30.06,North,355,0.0,6.0,46,0.00,,,0.00,WUHU216DAVISVP2,2013-03-17 19:40:00,
2013-03-17 12:45:00,68.4,46.8,30.06,North,360,0.0,7.0,46,0.00,,,0.00,WUHU216DAVISVP2,2013-03-17 19:45:00,
2013-03-17 12:50:00,69.5,46.6,30.06,North,355,1.0,7.0,44,0.00,,,0.00,WUHU216DAVISVP2,2013-03-17 19:50:00,
2013-03-17 12:55:00,69.6,47.3,30.06,NNW,348,4.0,6.0,45,0.00,,,0.00,WUHU216DAVISVP2,2013-03-17 19:55:00,
2013-03-17 13:00:00,69.3,46.4,30.06,North,355,5.0,8.0,44,0.00,,,0.00,WUHU216DAVISVP2,2013-03-17 20:00:00,
2013-03-17 13:05:00,70.7,47.7,30.06,NE,54,2.0,8.0,44,0.00,,,0.00,WUHU216DAVISVP2,2013-03-17 20:05:00,
2013-03-17 13:10:00,69.8,46.2,30.06,NW,311,1.0,7.0,43,0.00,,,0.00,WUHU216DAVISVP2,2013-03-17 20:10:00,
2013-03-17 13:15:00,70.3,45.4,30.05,North,5,5.0,7.0,41,0.00,,,0.00,WUHU216DAVISVP2,2013-03-17 20:15:00,
2013-03-17 13:20:00,71.2,46.2,30.05,NNW,329,3.0,7.0,41,0.00,,,0.00,WUHU216DAVISVP2,2013-03-17 20:20:00,
2013-03-17 13:25:00,70.7,45.7,30.04,NNE,18,0.0,7.0,41,0.00,,,0.00,WUHU216DAVISVP2,2013-03-17 20:25:00,
2013-03-17 13:30:00,71.5,45.9,30.04,NNE,30,0.0,7.0,40,0.00,,,0.00,WUHU216DAVISVP2,2013-03-17 20:30:00,
2013-03-17 13:35:00,71.8,46.8,30.04,NNE,31,0.0,7.0,41,0.00,,,0.00,WUHU216DAVISVP2,2013-03-17 20:35:00,
2013-03-17 13:40:00,71.7,46.6,30.04,NE,53,6.0,8.0,41,0.00,,,0.00,WUHU216DAVISVP2,2013-03-17 20:40:00,
2013-03-17 13:45:00,72.4,45.9,30.03,NNW,331,6.0,11.0,39,0.00,,,0.00,WUHU216DAVISVP2,2013-03-17 20:45:00,
2013-03-17 13:50:00,71.8,45.4,30.03,NW,314,3.0,11.0,39,0.00,,,0.00,WUHU216DAVISVP2,2013-03-17 20:50:00,
2013-03-17 13:55:00,71.5,45.8,30.03,NW,321,2.0,9.0,40,0.00,,,0.00,WUHU216DAVISVP2,2013-03-17 20:55:00,
2013-03-17 14:00:00,73.4,46.9,30.03,NE,43,0.0,8.0,39,0.00,,,0.00,WUHU216DAVISVP2,2013-03-17 21:00:00,
2013-03-17 14:05:00,72.6,47.5,30.03,North,360,1.0,7.0,41,0.00,,,0.00,WUHU216DAVISVP2,2013-03-17 21:05:00,
2013-03-17 14:10:00,72.2,47.2,30.03,NW,319,2.0,9.0,41,0.00,,,0.00,WUHU216DAVISVP2,2013-03-17 21:10:00,
2013-03-17 14:15:00,72.3,45.8,30.02,NW,315,5.0,10.0,39,0.00,,,0.00,WUHU216DAVISVP2,2013-03-17 21:15:00,
2013-03-17 14:20:00,72.4,46.6,30.02,WNW,284,2.0,10.0,40,0.00,,,0.00,WUHU216DAVISVP2,2013-03-17 21:20:00,
2013-03-17 14:25:00,73.3,47.4,30.02,North,355,7.0,15.0,40,0.00,,,0.00,WUHU216DAVISVP2,2013-03-17 21:25:00,
2013-03-17 14:30:00,73.7,44.9,30.02,North,11,8.0,15.0,36,0.00,,,0.00,WUHU216DAVISVP2,2013-03-17 21:30:00,
2013-03-17 14:35:00,73.0,45.0,30.02,NW,320,7.0,13.0,37,0.00,,,0.00,WUHU216DAVISVP2,2013-03-17 21:35:00,
2013-03-17 14:40:00,73.3,45.3,30.01,North,5,3.0,13.0,37,0.00,,,0.00,WUHU216DAVISVP2,2013-03-17 21:40:00,
2013-03-17 14:45:00,73.2,44.5,30.01,North,10,4.0,16.0,36,0.00,,,0.00,WUHU216DAVISVP2,2013-03-17 21:45:00,
2013-03-17 14:50:00,73.8,45.8,30.01,NNW,338,5.0,16.0,37,0.00,,,0.00,WUHU216DAVISVP2,2013-03-17 21:50:00,
2013-03-17 14:55:00,74.0,45.9,30.00,NW,320,0.0,12.0,37,0.00,,,0.00,WUHU216DAVISVP2,2013-03-17 21:55:00,
2013-03-17 15:00:00,74.3,45.5,30.00,NW,315,7.0,14.0,36,0.00,,,0.00,WUHU216DAVISVP2,2013-03-17 22:00:00,
2013-03-17 15:05:00,73.9,45.1,30.00,NW,316,0.0,14.0,36,0.00,,,0.00,WUHU216DAVISVP2,2013-03-17 22:05:00,
2013-03-17 15:10:00,74.2,44.6,30.00,NNW,331,7.0,11.0,35,0.00,,,0.00,WUHU216DAVISVP2,2013-03-17 22:10:00,
2013-03-17 15:15:00,74.2,44.6,30.00,NW,326,4.0,10.0,35,0.00,,,0.00,WUHU216DAVISVP2,2013-03-17 22:15:00,
2013-03-17 15:20:00,74.4,45.5,30.00,NNE,26,2.0,11.0,36,0.00,,,0.00,WUHU216DAVISVP2,2013-03-17 22:20:00,
2013-03-17 15:25:00,74.5,44.1,30.00,NNW,333,7.0,13.0,34,0.00,,,0.00,WUHU216DAVISVP2,2013-03-17 22:25:00,
2013-03-17 15:30:00,74.5,44.9,30.00,NNW,340,8.0,13.0,35,0.00,,,0.00,WUHU216DAVISVP2,2013-03-17 22:30:00,
2013-03-17 15:35:00,74.2,44.6,30.00,NNE,28,6.0,11.0,35,0.00,,,0.00,WUHU216DAVISVP2,2013-03-17 22:35:00,
2013-03-17 15:40:00,74.2,43.9,30.00,NNW,329,0.0,12.0,34,0.00,,,0.00,WUHU216DAVISVP2,2013-03-17 22:40:00,
2013-03-17 15:45:00,74.4,44.0,30.00,NW,317,6.0,12.0,34,0.00,,,0.00,WUHU216DAVISVP2,2013-03-17 22:45:00,
2013-03-17 15:50:00,75.1,43.9,30.00,NNW,346,6.0,11.0,33,0.00,,,0.00,WUHU216DAVISVP2,2013-03-17 22:50:00,
2013-03-17 15:55:00,74.6,42.6,30.00,WNW,303,11.0,14.0,32,0.00,,,0.00,WUHU216DAVISVP2,2013-03-17 22:55:00,
2013-03-17 16:00:00,74.7,42.7,29.99,North,360,2.0,14.0,32,0.00,,,0.00,WUHU216DAVISVP2,2013-03-17 23:00:00,
2013-03-17 16:05:00,74.9,42.9,30.00,NNW,338,7.0,13.0,32,0.00,,,0.00,WUHU216DAVISVP2,2013-03-17 23:05:00,
2013-03-17 16:10:00,75.2,43.1,29.99,WNW,296,9.0,13.0,32,0.00,,,0.00,WUHU216DAVISVP2,2013-03-17 23:10:00,
2013-03-17 16:15:00,74.9,42.1,30.00,NW,325,11.0,12.0,31,0.00,,,0.00,WUHU216DAVISVP2,2013-03-17 23:15:00,
2013-03-17 16:20:00,74.6,41.8,29.99,NNW,329,5.0,14.0,31,0.00,,,0.00,WUHU216DAVISVP2,2013-03-17 23:20:00,
2013-03-17 16:25:00,74.8,42.0,29.99,NNE,21,2.0,14.0,31,0.00,,,0.00,WUHU216DAVISVP2,2013-03-17 23:25:00,
2013-03-17 16:30:00,74.8,41.1,29.99,North,355,5.0,12.0,30,0.00,,,0.00,WUHU216DAVISVP2,2013-03-17 23:30:00,
2013-03-17 16:35:00,74.6,40.2,29.99,NNE,28,4.0,12.0,29,0.00,,,0.00,WUHU216DAVISVP2,2013-03-17 23:35:00,
2013-03-17 16:40:00,75.0,40.6,29.99,North,360,7.0,10.0,29,0.00,,,0.00,WUHU216DAVISVP2,2013-03-17 23:40:00,
2013-03-17 16:45:00,74.9,41.2,29.99,North,5,4.0,10.0,30,0.00,,,0.00,WUHU216DAVISVP2,2013-03-17 23:45:00,
2013-03-17 16:50:00,74.6,40.1,29.99,NNW,339,7.0,10.0,29,0.00,,,0.00,WUHU216DAVISVP2,2013-03-17 23:50:00,
2013-03-17 16:55:00,74.3,40.7,29.99,North,5,4.0,10.0,30,0.00,,,0.00,WUHU216DAVISVP2,2013-03-17 23:55:00,
2013-03-17 17:00:00,74.6,40.1,29.99,NNW,334,0.0,11.0,29,0.00,,,0.00,WUHU216DAVISVP2,2013-03-18 00:00:00,
2013-03-17 17:05:00,74.6,40.1,29.98,NNW,347,5.0,11.0,29,0.00,,,0.00,WUHU216DAVISVP2,2013-03-18 00:05:00,
2013-03-17 17:10:00,74.4,40.8,29.98,North,350,6.0,10.0,30,0.00,,,0.00,WUHU216DAVISVP2,2013-03-18 00:10:00,
2013-03-17 17:15:00,74.3,39.8,29.98,North,355,1.0,10.0,29,0.00,,,0.00,WUHU216DAVISVP2,2013-03-18 00:15:00,
2013-03-17 17:20:00,74.3,39.8,29.98,NW,323,5.0,9.0,29,0.00,,,0.00,WUHU216DAVISVP2,2013-03-18 00:20:00,
2013-03-17 17:25:00,74.2,40.6,29.98,North,5,5.0,9.0,30,0.00,,,0.00,WUHU216DAVISVP2,2013-03-18 00:25:00,
2013-03-17 17:30:00,74.1,39.8,29.98,North,360,4.0,8.0,29,0.00,,,0.00,WUHU216DAVISVP2,2013-03-18 00:30:00,
2013-03-17 17:35:00,74.3,40.0,29.98,North,360,3.0,8.0,29,0.00,,,0.00,WUHU216DAVISVP2,2013-03-18 00:35:00,
2013-03-17 17:40:00,74.2,40.8,29.98,NNW,345,2.0,8.0,30,0.00,,,0.00,WUHU216DAVISVP2,2013-03-18 00:40:00,
2013-03-17 17:45:00,73.9,39.6,29.98,NNW,331,0.0,8.0,29,0.00,,,0.00,WUHU216DAVISVP2,2013-03-18 00:45:00,
2013-03-17 17:50:00,73.7,39.5,29.98,NW,318,3.0,8.0,29,0.00,,,0.00,WUHU216DAVISVP2,2013-03-18 00:50:00,
2013-03-17 17:55:00,73.5,39.3,29.98,NNW,347,2.0,8.0,29,0.00,,,0.00,WUHU216DAVISVP2,2013-03-18 00:55:00,
2013-03-17 18:00:00,73.6,38.5,29.98,North,350,4.0,8.0,28,0.00,,,0.00,WUHU216DAVISVP2,2013-03-18 01:00:00,
2013-03-17 18:05:00,73.5,39.3,29.98,NNW,343,5.0,6.0,29,0.00,,,0.00,WUHU216DAVISVP2,2013-03-18 01:05:00,
2013-03-17 18:10:00,73.5,40.0,29.98,NW,321,2.0,6.0,30,0.00,,,0.00,WUHU216DAVISVP2,2013-03-18 01:10:00,
2013-03-17 18:15:00,73.1,40.5,29.98,North,355,0.0,6.0,31,0.00,,,0.00,WUHU216DAVISVP2,2013-03-18 01:15:00,
2013-03-17 18:20:00,72.9,39.5,29.98,North,350,0.0,6.0,30,0.00,,,0.00,WUHU216DAVISVP2,2013-03-18 01:20:00,
2013-03-17 18:25:00,72.6,39.2,29.98,NNW,348,0.0,5.0,30,0.00,,,0.00,WUHU216DAVISVP2,2013-03-18 01:25:00,
2013-03-17 18:30:00,72.3,38.1,29.98,NW,312,2.0,5.0,29,0.00,,,0.00,WUHU216DAVISVP2,2013-03-18 01:30:00,
2013-03-17 18:35:00,72.1,38.8,29.98,NNW,331,0.0,5.0,30,0.00,,,0.00,WUHU216DAVISVP2,2013-03-18 01:35:00,
2013-03-17 18:40:00,71.8,39.3,29.98,NNW,340,3.0,7.0,31,0.00,,,0.00,WUHU216DAVISVP2,2013-03-18 01:40:00,
2013-03-17 18:45:00,71.4,39.0,29.98,NW,315,2.0,7.0,31,0.00,,,0.00,WUHU216DAVISVP2,2013-03-18 01:45:00,
2013-03-17 18:50:00,71.0,38.7,29.98,NW,325,4.0,5.0,31,0.00,,,0.00,WUHU216DAVISVP2,2013-03-18 01:50:00,
2013-03-17 18:55:00,70.4,38.9,29.98,NW,325,0.0,5.0,32,0.00,,,0.00,WUHU216DAVISVP2,2013-03-18 01:55:00,
2013-03-17 19:00:00,69.9,38.5,29.98,NW,325,0.0,4.0,32,0.00,,,0.00,WUHU216DAVISVP2,2013-03-18 02:00:00,
2013-03-17 19:05:00,69.5,38.9,29.98,NW,325,0.0,1.0,33,0.00,,,0.00,WUHU216DAVISVP2,2013-03-18 02:05:00,
2013-03-17 19:10:00,69.3,39.5,29.98,NW,325,2.0,3.0,34,0.00,,,0.00,WUHU216DAVISVP2,2013-03-18 02:10:00,
2013-03-17 19:15:00,68.9,39.2,29.98,NW,325,0.0,3.0,34,0.00,,,0.00,WUHU216DAVISVP2,2013-03-18 02:15:00,
2013-03-17 19:20:00,68.5,39.6,29.98,NW,325,0.0,4.0,35,0.00,,,0.00,WUHU216DAVISVP2,2013-03-18 02:20:00,
2013-03-17 19:25:00,68.0,39.9,29.98,NW,325,0.0,4.0,36,0.00,,,0.00,WUHU216DAVISVP2,2013-03-18 02:25:00,
2013-03-17 19:30:00,67.6,39.5,29.98,NW,325,3.0,4.0,36,0.00,,,0.00,WUHU216DAVISVP2,2013-03-18 02:30:00,
2013-03-17 19:35:00,67.3,38.7,29.98,NW,325,0.0,4.0,35,0.00,,,0.00,WUHU216DAVISVP2,2013-03-18 02:35:00,
2013-03-17 19:40:00,67.1,38.3,29.98,NW,325,0.0,4.0,35,0.00,,,0.00,WUHU216DAVISVP2,2013-03-18 02:40:00,
2013-03-17 19:45:00,66.9,38.2,29.98,NW,325,0.0,4.0,35,0.00,,,0.00,WUHU216DAVISVP2,2013-03-18 02:45:00,
2013-03-17 19:50:00,66.7,38.7,29.98,NW,325,0.0,4.0,36,0.00,,,0.00,WUHU216DAVISVP2,2013-03-18 02:50:00,
2013-03-17 19:55:00,66.3,38.4,29.98,NW,325,2.0,4.0,36,0.00,,,0.00,WUHU216DAVISVP2,2013-03-18 02:55:00,
2013-03-17 20:00:00,66.0,37.4,29.98,NW,307,2.0,5.0,35,0.00,,,0.00,WUHU216DAVISVP2,2013-03-18 03:00:00,
2013-03-17 20:05:00,65.8,37.4,29.98,NW,306,0.0,5.0,35,0.00,,,0.00,WUHU216DAVISVP2,2013-03-18 03:05:00,
2013-03-17 20:10:00,65.5,37.1,29.98,NW,306,0.0,5.0,35,0.00,,,0.00,WUHU216DAVISVP2,2013-03-18 03:10:00,
2013-03-17 20:15:00,65.1,36.8,29.98,NW,306,0.0,4.0,35,0.00,,,0.00,WUHU216DAVISVP2,2013-03-18 03:15:00,
2013-03-17 20:20:00,64.7,37.1,29.98,NW,306,0.0,4.0,36,0.00,,,0.00,WUHU216DAVISVP2,2013-03-18 03:20:00,
2013-03-17 20:25:00,64.4,36.8,29.98,NW,306,2.0,3.0,36,0.00,,,0.00,WUHU216DAVISVP2,2013-03-18 03:25:00,
2013-03-17 20:30:00,64.0,37.0,29.99,NW,323,2.0,5.0,37,0.00,,,0.00,WUHU216DAVISVP2,2013-03-18 03:30:00,
2013-03-17 20:35:00,63.6,37.3,29.99,NW,317,2.0,5.0,38,0.00,,,0.00,WUHU216DAVISVP2,2013-03-18 03:35:00,
2013-03-17 20:40:00,63.4,37.2,29.99,NW,313,4.0,5.0,38,0.00,,,0.00,WUHU216DAVISVP2,2013-03-18 03:40:00,
2013-03-17 20:45:00,63.3,37.1,29.99,NW,315,0.0,5.0,38,0.00,,,0.00,WUHU216DAVISVP2,2013-03-18 03:45:00,
2013-03-17 20:50:00,63.2,37.0,29.99,NW,308,1.0,4.0,38,0.00,,,0.00,WUHU216DAVISVP2,2013-03-18 03:50:00,
2013-03-17 20:55:00,63.0,37.5,29.99,NW,326,3.0,4.0,39,0.00,,,0.00,WUHU216DAVISVP2,2013-03-18 03:55:00,
2013-03-17 21:00:00,62.7,37.2,30.00,NW,326,3.0,4.0,39,0.00,,,0.00,WUHU216DAVISVP2,2013-03-18 04:00:00,
2013-03-17 21:05:00,62.4,37.6,29.99,NW,326,2.0,4.0,40,0.00,,,0.00,WUHU216DAVISVP2,2013-03-18 04:05:00,
2013-03-17 21:10:00,62.0,38.0,30.00,NW,326,2.0,4.0,41,0.00,,,0.00,WUHU216DAVISVP2,2013-03-18 04:10:00,
2013-03-17 21:15:00,61.6,37.7,30.00,NW,326,2.0,3.0,41,0.00,,,0.00,WUHU216DAVISVP2,2013-03-18 04:15:00,
2013-03-17 21:20:00,61.3,38.0,30.00,NW,326,0.0,3.0,42,0.00,,,0.00,WUHU216DAVISVP2,2013-03-18 04:20:00,
2013-03-17 21:25:00,61.1,38.4,30.00,NW,326,2.0,3.0,43,0.00,,,0.00,WUHU216DAVISVP2,2013-03-18 04:25:00,
2013-03-17 21:30:00,60.6,38.6,30.00,NW,326,2.0,4.0,44,0.00,,,0.00,WUHU216DAVISVP2,2013-03-18 04:30:00,
2013-03-17 21:35:00,60.3,38.2,30.00,NW,326,1.0,4.0,44,0.00,,,0.00,WUHU216DAVISVP2,2013-03-18 04:35:00,
2013-03-17 21:40:00,60.1,38.6,30.01,NW,326,1.0,4.0,45,0.00,,,0.00,WUHU216DAVISVP2,2013-03-18 04:40:00,
2013-03-17 21:45:00,59.9,38.4,30.01,NW,326,1.0,4.0,45,0.00,,,0.00,WUHU216DAVISVP2,2013-03-18 04:45:00,
2013-03-17 21:50:00,59.9,38.4,30.01,NW,326,1.0,4.0,45,0.00,,,0.00,WUHU216DAVISVP2,2013-03-18 04:50:00,
2013-03-17 21:55:00,59.7,38.8,30.01,NW,326,2.0,4.0,46,0.00,,,0.00,WUHU216DAVISVP2,2013-03-18 04:55:00,
2013-03-17 22:00:00,59.5,38.6,30.01,NW,326,1.0,3.0,46,0.00,,,0.00,WUHU216DAVISVP2,2013-03-18 05:00:00,
2013-03-17 22:05:00,59.3,39.0,30.01,NW,326,0.0,3.0,47,0.00,,,0.00,WUHU216DAVISVP2,2013-03-18 05:05:00,
2013-03-17 22:10:00,58.8,38.6,30.01,NW,326,0.0,2.0,47,0.00,,,0.00,WUHU216DAVISVP2,2013-03-18 05:10:00,
2013-03-17 22:15:00,58.4,38.8,30.02,NW,326,0.0,1.0,48,0.00,,,0.00,WUHU216DAVISVP2,2013-03-18 05:15:00,
2013-03-17 22:20:00,57.8,38.7,30.02,NW,326,0.0,0.0,49,0.00,,,0.00,WUHU216DAVISVP2,2013-03-18 05:20:00,
2013-03-17 22:25:00,57.1,39.2,30.02,NW,326,0.0,0.0,51,0.00,,,0.00,WUHU216DAVISVP2,2013-03-18 05:25:00,
2013-03-17 22:30:00,56.8,38.9,30.02,NW,326,0.0,0.0,51,0.00,,,0.00,WUHU216DAVISVP2,2013-03-18 05:30:00,
2013-03-17 22:35:00,56.8,39.4,30.02,NW,326,0.0,1.0,52,0.00,,,0.00,WUHU216DAVISVP2,2013-03-18 05:35:00,
2013-03-17 22:40:00,57.1,39.7,30.02,NW,326,0.0,1.0,52,0.00,,,0.00,WUHU216DAVISVP2,2013-03-18 05:40:00,
2013-03-17 22:45:00,57.5,39.5,30.02,NW,326,0.0,2.0,51,0.00,,,0.00,WUHU216DAVISVP2,2013-03-18 05:45:00,
2013-03-17 22:50:00,58.2,39.6,30.02,NW,326,0.0,3.0,50,0.00,,,0.00,WUHU216DAVISVP2,2013-03-18 05:50:00,
2013-03-17 22:55:00,58.4,39.8,30.02,NW,325,3.0,3.0,50,0.00,,,0.00,WUHU216DAVISVP2,2013-03-18 05:55:00,
2013-03-17 23:00:00,58.4,39.8,30.02,NW,315,0.0,4.0,50,0.00,,,0.00,WUHU216DAVISVP2,2013-03-18 06:00:00,
2013-03-17 23:05:00,58.3,39.7,30.02,NW,309,0.0,4.0,50,0.00,,,0.00,WUHU216DAVISVP2,2013-03-18 06:05:00,
2013-03-17 23:10:00,58.3,39.7,30.02,NW,309,2.0,3.0,50,0.00,,,0.00,WUHU216DAVISVP2,2013-03-18 06:10:00,
2013-03-17 23:15:00,58.2,40.2,30.02,WNW,288,2.0,4.0,51,0.00,,,0.00,WUHU216DAVISVP2,2013-03-18 06:15:00,
2013-03-17 23:20:00,57.7,40.7,30.03,WNW,286,0.0,4.0,53,0.00,,,0.00,WUHU216DAVISVP2,2013-03-18 06:20:00,
2013-03-17 23:25:00,57.3,40.9,30.03,WNW,286,1.0,3.0,54,0.00,,,0.00,WUHU216DAVISVP2,2013-03-18 06:25:00,
2013-03-17 23:30:00,57.1,41.2,30.03,WNW,288,3.0,4.0,55,0.00,,,0.00,WUHU216DAVISVP2,2013-03-18 06:30:00,
2013-03-17 23:35:00,56.8,40.9,30.03,WNW,300,3.0,5.0,55,0.00,,,0.00,WUHU216DAVISVP2,2013-03-18 06:35:00,
2013-03-17 23:40:00,56.6,41.2,30.03,WNW,295,0.0,5.0,56,0.00,,,0.00,WUHU216DAVISVP2,2013-03-18 06:40:00,
2013-03-17 23:45:00,56.4,41.4,30.03,WNW,298,1.0,4.0,57,0.00,,,0.00,WUHU216DAVISVP2,2013-03-18 06:45:00,
2013-03-17 23:50:00,56.2,41.7,30.02,WNW,300,0.0,4.0,58,0.00,,,0.00,WUHU216DAVISVP2,2013-03-18 06:50:00,
2013-03-17 23:55:00,56.1,41.6,30.03,WNW,285,0.0,5.0,58,0.00,,,0.00,WUHU216DAVISVP2,2013-03-18 06:55:00,